Погода в Димитровграде

Погода в Димитровграде : погода сейчас, прогноз погоды и архив. Всё, что Вы хотите узнать о погоде в Димитровграде!

Хотите узнать прогноз погоды в Димитровграде? Тогда Вам сюда: Погода в Димитровграде

Поиск расширенной информации на нашем сайте:

Другие новости

Новости СМИ2

Главная страница сайта

Новости сайта

03.07.2017

Напоминаем, что на нашем специализированном сайте Метеоцентр.Азия вы можете получить высокодетализированные автоматические прогнозы погоды по пунктам России, СНГ и мира в авиационном формате (включающие направление и скорость ветра, видимость, явления погоды, количество и форму облачности, нижнюю и верхнюю границу облачности).


Погода в Димитровграде - сегодня

Время (UTC), дата Ветер
(°,м/с) 
Видим.   Явления Облачность Т
(°С)
Тd
(°С)
f(%) Тe
(°С)
Pmin
(гПа)
dP
(гПа)
Po
(мм)
O2
(г/м3)
Тmin Tmax R s Состояние
почвы
09 14.06.18 330 (СЗ) 10 км    8/4 870 м верхняя 
[Cu hum|Ci fib]
+17.7 +6.4 47 +19  1012.4  1.5  753  284           
12 14.06.18 300 (СЗ) 10 км    ясно 
+18.3 +5.5 43 +19  1013.4  1.1  754  284           
18 14.06.18 340 (С) 10 км    ясно 
+11.9 +6.8 71 +13  1014.6  0.7  754  290           
21 14.06.18 340 (С) 10 км    ясно 
+8.7 +6.1 84 +9  1015.6  0.9  755  294           
00 15.06.18 330 (СЗ) 10 км    8/0 средняя 
[Ac As]
+8.5 +5.6 82 +9  1016.3  0.7  756  294           
03 15.06.18 300 (СЗ) 10 км    10/0 средняя 
[Ac inh]
+11.4 +7 74 +13  1017  0.8  756  291  +8.4        сухая 
06 15.06.18 320 (СЗ) 10 км    9/4 870 м верхняя 
[Cu med, cong|Ci fib]
+16 +5.3 49 +17  1016.9  756  287           
09 15.06.18 320 (СЗ) 10 км    9/6 870 м верхняя 
[Cu Sc|Ci fib]
+16.4 +3.8 43 +17  1016.8  0.1  756  287           
15 15.06.18 020 (С) 10 км    4/3 870 м верхняя 
[Cu med, cong|Ci sp]
+16.4 +2.1 38 +17  1017.1  0.5  756  287    +19.8       
18 15.06.18 320 (СЗ) 10 км    3/3 870 м 
[Sc]
+10 +2.9 61 +11  1018.2  0.9  757  294           
21 15.06.18 330 (СЗ) 10 км    ясно 
+6.2 +3.2 81 +6  1018.7  0.3  757  298           
00 16.06.18 330 (СЗ) 10 км    ясно 
+3.9 +2 87 +3  1019  0.3  757  301           
06 16.06.18 330 (СЗ) 10 км    ясно 
+17.7 +0.4 31 +18  1018.3  -0.3  757  286           
09 16.06.18 340 (С) 10 км    3/3 930 м 
[Cu hum]
+20.3 +0.4 26 +20  1017.3  -1  757  284           
12 16.06.18 350 (С) 10 км    ясно 
+20.7 -0.2 25 +21  1016.7  -0.5  756  283           
18 16.06.18 330 (СЗ) 10 км    ясно 
+13.1 +3.3 51 +14  1017.5  0.7  757  290           
21 16.06.18 330 (СЗ) 10 км    ясно 
+9 +4 71 +9  1017.6  757  294           
00 17.06.18 330 (СЗ) 10 км    ясно 
+8.3 +3.6 72 +8  1017.5  0.1  756  295           
06 17.06.18 350 (С) 10 км    5/0 верхняя 
[Cc]
+21.2 +2.4 29 +21  1016.1  -1  756  282           
09 17.06.18 340 (С) 10 км    ясно 
+23.5 -0.5 20 +24  1014.5  -1.5  755  280           
18 17.06.18 330 (СЗ) 10 км    ясно 
+16.2 +4.9 47 +18  1014  0.5  754  286           
21 17.06.18 340 (С) 10 км    ясно 
+12.1 +6.5 69 +12  1014.1  754  290           
00 18.06.18 320 (СЗ) 10 км    ясно 
+9.3 +6.4 82 +10  1014.1  0.1  754  293           
06 18.06.18 340 (С) 10 км    ясно 
+23.7 +6.1 32 +24  1012.7  -0.9  753  278           
09 18.06.18 350 (С) 10 км    1/1 900 м 
[Cu med, cong]
+26.1 +5.3 26 +26  1011.9  -0.8  753  276           
Время (UTC), дата Ветер
(°,м/с) 
Видим.   Явления Облачность Т
(°С)
Тd
(°С)
f(%) Тe
(°С)
Pmin
(гПа)
dP
(гПа)
Po
(мм)
O2
(г/м3)
Тmin Tmax R s Состояние
почвы

Для получения пояснительной информации подведите курсор к названию столбца.

ПОГОДА в Димитровграде - архив

Всё, что Вы хотите узнать о погоде в Димитровграде - удобно и подробно!

Выберите нужную дату (начиная с 1 января 2015* года) и нажмите кнопку "Найти".
Будут отображены архивные сводки погоды по пункту Димитровград, начиная с указанной даты.


Отображать данные в формате CSV (для использования в таблицах Excel)


Внимание! Наш архив погоды предназначен исключительно для личного некоммерческого использования в познавательных целях. Если Вам необходимы официальные справки о состоянии погоды (для производственных, юридических, коммерческих и т.п. целей), обращайтесь в органы Росгидромета.

*Примечание: данная дата относится к архиву по метеостанциям СССР (Россия, СНГ, Балтия).
Архив по метеостанциям Зарубежной Европы и Азии (кроме Китая) хранится 10 дней, по другим регионам земного шара (Китай, Африка, Америка, Австралия, Океания) - 1 день.

Димитровград - район местоположения метеостанции


Название, широта, долгота, высота метеостанции:
Димитровград 54.2°ш. 49.6°д. 73 м над ур. моря [Российская Федерация]

Дополнительная информация

В oтличие oт бoльшинства пoгoдных сайтoв мы публикуем пoдрoбную метеoинфoрмацию в детальнoм прoфессиoнальнoм фoрмате.

Характеристики температуры и влажнoсти вoздуха измеряются на высoте 2 м в тени вдали oт зданий и деревьев.
Скoрoсть ветра измеряется на высoте 10 м (на урoвне рoста челoвека скoрoсть ветра ниже в 1.5-2 раза). Если метеoстанция нахoдится в гoрoде или в лесу, тo скoрoсть ветра занижена на 2-4 м/с пo сравнению с oткрытым местoм. Скoрoсть ветра над акватoриями крупных рек и oзёр, а также на вершинах хoлмoв на 2-5 м/с выше, чем в oбычных услoвиях.
Атмoсфернoе давление в разных тoчках местнoсти мoжет значительнo oтличаться oт давления на метеoстанции, в зависимoсти oт услoвий рельефа (при пoдъёме на 10 м давление пoнижается примернo на 1 мм рт.ст.).